Location: Bailleul
(50.3375°N, 2.8513°E)
Time: 09:28:33
(UTC+00:00)

Cosmos 2237 Rocket - Pass Details

Date: 16 June 2021
Orbit: 835 x 850 km, 71.0° (Epoch: 26 July)

Event Time Altitude Azimuth Distance (km) Brightness Sun altitude
Exits shadow 21:42:08 - 118° (ESE) 2,503 4.2 -11.1°
Reaches altitude 10° 21:42:33 10° 114° (ESE) 2,447 4.1 -11.1°
Maximum altitude 21:44:21 12° 95° (E) 2,338 4.2 -11.3°
Drops below altitude 10° 21:46:09 10° 76° (ENE) 2,452 4.5 -11.4°
Sets 21:50:25 0° 45° (NE) 3,394 5.6 -11.7°
